STAR ONE C3

Last updated on Tue Sep 22 2026 00:03:12 GMT+0000 (Coordinated Universal Time)

1 38991U 12062A 26264.45579003 -.00000253 00000+0 00000+0 0 9993 2 38991 0.0379 85.2644 0002057 87.9686 276.2008 1.00271541 50728
UTC large
Height (km)
Speed (km/s)
/
Latitude / Longitude
Inclination (degrees)
Orbital Period (minutes)
Azimuth
Elevation
Range (km)
Doppler Factor

Next 0 passes for location: London (51.5072 / 0.1276)

No passes found over London.
STAR ONE C3